Content
SEND FEEDBACK

Daily
Averages
Monthly
Summary
Canada

STEVESTON, BRITISH COLUMBIA


Home > North America > Canada > British Columbia
Elevation: 7 feet     Latitude: 49 10N     Longitude: 123 10W

WEATHER
 
SELECT A DAY
Number of Records: 249,307;   Date Range: 5/15/97 - 7/28/14
 
SHARE

PRINT THIS DATA

[ ← Previous Day ]
WEATHER ALMANAC - JUNE 24, 2013
[ Next Day → ]
[ °C ]   °F
We're sorry. There is no daily almanac available for Steveston, British Columbia on June 24, 2013.
WEATHER BY HOUR - JUNE 24, 2013
[ °C ]   °F
Local TimeTemperatureDewpointHumidityBarometerVisibilityWind DirectionWind SpeedGust SpeedPrecipitationEventsConditions
12:35 AM57.2 °F57.2 °F100 %29.59 in0.8 miCalmRainLight Rain
12:55 AM57.2 °F57.2 °F100 %29.58 in0.5 miCalmRainLight Rain
1:15 AM57.2 °F57.2 °F100 %29.58 in1.2 miCalmRainLight Rain
1:35 AM57.2 °F57.2 °F100 %29.57 in1.2 miCalmOvercast
1:55 AM57.2 °F57.2 °F100 %29.57 in0.8 miCalmOvercast
2:15 AM57.2 °F57.2 °F100 %29.57 in2.5 miCalmRainLight Rain
2:35 AM57.2 °F57.2 °F100 %29.56 in2.0 miCalmMostly Cloudy
2:55 AM59.0 °F59.0 °F100 %29.55 in7.0 miENE (60°)4.6 mphRainLight Rain
3:15 AM59.0 °F59.0 °F100 %29.55 in10.0 miCalmMostly Cloudy
3:35 AM59.0 °F57.2 °F94 %29.55 in8.0 miCalmOvercast
3:55 AM59.0 °F59.0 °F100 %29.55 in8.0 miCalmMostly Cloudy
4:15 AM59.0 °F59.0 °F100 %29.54 in7.0 miSE (130°)3.5 mphMostly Cloudy
4:35 AM59.0 °F59.0 °F100 %29.54 in5.0 miCalmOvercast
4:55 AM59.0 °F59.0 °F100 %29.54 in7.0 miCalmOvercast
5:15 AM59.0 °F59.0 °F100 %29.54 in7.0 miCalmOvercast
5:35 AM59.0 °F59.0 °F100 %29.54 in6.0 miSouth (190°)5.8 mphOvercast
5:55 AM59.0 °F59.0 °F100 %29.54 in5.0 miSouth (180°)5.8 mphOvercast
6:15 AM59.0 °F59.0 °F100 %29.54 in8.0 miSouth (180°)5.8 mphOvercast
6:35 AM59.0 °F59.0 °F100 %29.54 in9.0 miSouth (170°)5.8 mphOvercast
6:55 AM59.0 °F59.0 °F100 %29.54 in9.0 miSouth (170°)5.8 mphOvercast
7:15 AM59.0 °F59.0 °F100 %29.54 in7.0 miSouth (180°)9.2 mphOvercast
7:35 AM59.0 °F59.0 °F100 %29.55 in2.5 miSouth (190°)9.2 mphOvercast
7:55 AM59.0 °F59.0 °F100 %29.56 in1.2 miSouth (190°)9.2 mphOvercast
8:15 AM57.2 °F57.2 °F100 %29.56 in1.0 miSouth (190°)6.9 mphRainLight Rain
8:35 AM57.2 °F57.2 °F100 %29.57 in10.0 miSSW (200°)6.9 mphOvercast
8:55 AM59.0 °F57.2 °F94 %29.57 in10.0 miSSW (200°)6.9 mphOvercast
9:15 AM59.0 °F57.2 °F94 %29.57 in10.0 miSSW (210°)8.1 mphOvercast
9:35 AM59.0 °F57.2 °F94 %29.58 in10.0 miSouth (190°)6.9 mphOvercast
9:55 AM59.0 °F57.2 °F94 %29.58 in10.0 miSSW (210°)6.9 mphOvercast
10:15 AM57.2 °F57.2 °F100 %29.60 in3.0 miSouth (190°)6.9 mphRainLight Rain
10:35 AM57.2 °F55.4 °F94 %29.61 in1.2 miSouth (190°)8.1 mph17.3 mph0.04 inRainHeavy Rain
10:55 AM55.4 °F55.4 °F100 %29.62 in2.0 miSouth (180°)8.1 mph0.23 inRainRain
11:15 AM55.4 °F55.4 °F100 %29.63 in2.5 miSouth (190°)9.2 mph0.05 inRainRain
11:55 AM55.4 °F55.4 °F100 %29.64 in7.0 miSouth (180°)4.6 mph0.05 inRainLight Rain
12:15 PM57.2 °F55.4 °F94 %29.65 in10.0 miSouth (180°)9.2 mphOvercast
12:35 PM57.2 °F55.4 °F94 %29.65 in10.0 miSSW (200°)10.4 mph0.01 inMostly Cloudy
12:55 PM59.0 °F55.4 °F88 %29.65 in10.0 miSouth (180°)8.1 mph0.01 inPartly Cloudy
1:15 PM59.0 °F55.4 °F88 %29.66 in10.0 miSouth (190°)10.4 mphScattered Clouds
1:35 PM59.0 °F55.4 °F88 %29.66 in10.0 miSouth (190°)6.9 mphOvercast
1:55 PM59.0 °F55.4 °F88 %29.66 in10.0 miSouth (190°)9.2 mphOvercast
2:15 PM59.0 °F55.4 °F88 %29.66 in10.0 miSSW (200°)9.2 mphOvercast
2:35 PM60.8 °F55.4 °F82 %29.66 in10.0 miSouth (190°)8.1 mphOvercast
2:55 PM62.6 °F57.2 °F82 %29.67 in10.0 miSSE (160°)3.5 mphMostly Cloudy
3:15 PM62.6 °F57.2 °F82 %29.67 in10.0 miSouth (170°)3.5 mphOvercast
3:35 PM62.6 °F55.4 °F77 %29.66 in10.0 miNorthOvercast
3:55 PM64.4 °F55.4 °F73 %29.66 in10.0 miSSW (200°)8.1 mphOvercast
4:15 PM62.6 °F55.4 °F77 %29.66 in10.0 miSouth (180°)5.8 mphOvercast
4:35 PM64.4 °F55.4 °F73 %29.66 in10.0 miSouth (190°)6.9 mphScattered Clouds
4:55 PM64.4 °F55.4 °F73 %29.66 in10.0 miSouth (190°)8.1 mphPartly Cloudy
5:15 PM64.4 °F55.4 °F73 %29.66 in10.0 miSouth (180°)4.6 mphPartly Cloudy
5:35 PM64.4 °F53.6 °F68 %29.66 in10.0 miSSW (210°)5.8 mphPartly Cloudy
5:55 PM60.8 °F55.4 °F82 %29.66 in10.0 miCalmClear
6:15 PM60.8 °F55.4 °F82 %29.67 in10.0 miCalmClear
6:35 PM59.0 °F55.4 °F88 %29.67 in10.0 miCalmScattered Clouds
6:55 PM59.0 °F55.4 °F88 %29.67 in10.0 miCalmScattered Clouds
7:15 PM59.0 °F55.4 °F88 %29.67 in9.0 miCalmRainLight Rain
7:35 PM59.0 °F55.4 °F88 %29.67 in10.0 miCalmScattered Clouds
7:55 PM59.0 °F55.4 °F88 %29.67 in10.0 miCalmScattered Clouds
8:15 PM59.0 °F55.4 °F88 %29.67 in10.0 miCalmClear
8:35 PM59.0 °F55.4 °F88 %29.67 in10.0 miCalmPartly Cloudy
8:55 PM59.0 °F55.4 °F88 %29.67 in10.0 miCalmClear
9:15 PM55.4 °F53.6 °F94 %29.67 in10.0 miCalmPartly Cloudy
9:35 PM55.4 °F53.6 °F94 %29.67 in10.0 miCalmScattered Clouds
9:55 PM57.2 °F55.4 °F94 %29.67 in10.0 miCalmScattered Clouds
10:15 PM57.2 °F55.4 °F94 %29.67 in10.0 miCalmPartly Cloudy
10:35 PM57.2 °F55.4 °F94 %29.67 in10.0 miCalmPartly Cloudy
10:55 PM55.4 °F55.4 °F100 %29.67 in10.0 miCalmPartly Cloudy
11:15 PM55.4 °F55.4 °F100 %29.67 in10.0 miCalmClear
11:35 PM55.4 °F55.4 °F100 %29.67 in10.0 miCalmScattered Clouds
11:55 PM55.4 °F55.4 °F100 %29.67 in10.0 miCalmMostly Cloudy
Hourly data recorded from CZBB, located miles away from Steveston, British Columbia







STORIES FROM OUR PARTNERS